Flag for Cambodia Weather past 2 weeks in Battambang, Cambodia

Now
82 °F

Passing clouds.


Feels Like: 91 °F
Forecast: 80 / 99 °F
Wind: 2 mph from North

Location: Siemreap

Current Time: May 5, 2015 at 4:18:40 AM

Latest Report: May 5, 2015 at 1:00 AM


Visibility: 6 mi

Pressure: 29.74 "Hg

Humidity: 84%

Dew point: 77 °F

Location of BattambangLocation

Historic Weather in Battambang — Graph

°F

Battambang temperature yesterday

Maximum temperature yesterday: 100 °F (at 2:00 PM)
Minimum temperature yesterday: 82 °F (at 12:00 AM)
Average temperature yesterday: 92 °F

Past Weeks' High & Low Weather Summary

 TemperatureHumidityPressure
High104 °F (Apr 20, 3:30 PM)100% (Apr 23, 1:00 AM)30.09 "Hg (Apr 23, 1:00 AM)
Low77 °F (Apr 22, 9:00 PM)23% (Apr 22, 2:00 PM)29.59 "Hg (Apr 21, 4:30 PM)
Average89 °F61%29.78 "Hg
* Reported Apr 20 1:00 AM — May 5 1:00 AM, Battambang, Weather by CustomWeather, © 2015

Note: Actual official high and low records may vary slightly from our data, if they occured in-between our weather recording intervals... More about our weather records

Advertising

Battambang weather history for previous 24 hours

 ConditionsComfort  
Time TempWeatherWind HumidityBarometerVisibility
1:00 AM
Tue, May 5
82 °FPassing clouds.2 mph84%29.74 "Hg6 mi
12:30 AM84 °FPassing clouds.3 mph79%29.74 "Hg6 mi
10:00 PM
Mon, May 4
86 °FPassing clouds.5 mph70%29.77 "Hg6 mi
9:30 PM86 °FPassing clouds.3 mph70%29.74 "Hg6 mi
9:00 PM88 °FPassing clouds.3 mph66%29.74 "Hg6 mi
8:30 PM88 °FPassing clouds.5 mph62%29.74 "Hg6 mi
8:00 PM90 °FPassing clouds.5 mph67%29.71 "Hg6 mi
7:30 PM90 °FPassing clouds.7 mph67%29.71 "Hg6 mi
6:30 PM93 °FPassing clouds.6 mph49%29.68 "HgN/A
6:00 PM97 °FScattered clouds.3 mph42%29.68 "HgN/A
5:30 PM99 °FScattered clouds.5 mph39%29.65 "HgN/A
5:00 PM99 °FScattered clouds.5 mph37%29.65 "HgN/A
4:30 PM99 °FScattered clouds.3 mph37%29.65 "HgN/A
4:00 PM99 °FScattered clouds.8 mph37%29.65 "HgN/A
3:30 PM100 °FScattered clouds.5 mph35%29.68 "HgN/A
3:00 PM97 °FScattered clouds.5 mph42%29.68 "HgN/A
2:30 PM99 °FScattered clouds.6 mph39%29.71 "HgN/A
2:00 PM100 °FScattered clouds.3 mph35%29.74 "HgN/A
1:30 PM99 °FScattered clouds.2 mph37%29.74 "HgN/A
1:00 PM99 °FScattered clouds.5 mph37%29.77 "HgN/A
12:30 PM97 °FScattered clouds.7 mph39%29.80 "HgN/A
12:00 PM97 °FScattered clouds.6 mph42%29.80 "HgN/A
11:30 AM95 °FScattered clouds.6 mph44%29.83 "HgN/A
11:00 AM95 °FScattered clouds.7 mph47%29.83 "HgN/A
10:30 AM93 °FScattered clouds.5 mph53%29.83 "HgN/A
10:00 AM93 °FScattered clouds.6 mph53%29.83 "HgN/A
9:30 AM90 °FScattered clouds.5 mph63%29.83 "HgN/A
9:00 AM90 °FScattered clouds.5 mph63%29.83 "HgN/A
8:30 AM86 °FScattered clouds.5 mph70%29.80 "HgN/A
8:00 AM86 °FScattered clouds.5 mph70%29.80 "HgN/A
7:30 AM84 °FScattered clouds.5 mph79%29.80 "HgN/A
Weather by CustomWeather, © 2015

See weather overviewHow to use our weather pages